Wetbulb
59.25 54.77 54.49 50.76 46.18 42.18 38.91 40.81 43.12 43.18 44.77 47.68 46.44 45.80 46.40 48.50 44.63 41.87 57.66 66.13 68.50 69.28 70.26 71.39 72.38 73.43 73.54 72.82 72.48 72.28 71.90 70.60 69.96 69.37 68.80 68.49 68.13 67.56 67.16 66.94 67.05 67.43 68.42 69.22 68.68 70.21 69.52 68.17 67.85
56.16 54.56 51.41 45.55 41.11 37.11 38.11 41.12 41.90 43.50 48.37 48.88 48.47 49.42 49.63 49.67 54.69 57.65 62.58 65.68 69.34 69.94 70.54 71.50 70.96 73.05 73.31 72.45 71.96 72.37 71.82 71.13 69.96 69.42 68.75 67.87 67.05 66.42 65.96 65.63 65.62 66.06 67.41 68.33 68.73 69.26 68.39 67.66 66.71
54.63 50.80 50.03 41.84 36.73 36.76 37.72 41.18 42.93 46.23 47.00 45.82 48.16 50.75 50.65 51.00 54.87 58.30 60.91 67.33 69.82 70.16 70.71 70.77 71.08 72.50 72.90 72.65 72.21 72.36 71.71 71.01 70.00 69.49 68.91 68.18 67.26 66.07 64.95 64.37 64.26 64.52 65.96 67.13 68.15 68.08 67.23 65.94 65.02
52.08 50.07 44.42 40.89 39.18 41.03 42.40 42.70 43.79 45.44 46.45 47.06 48.83 48.55 52.36 56.11 56.82 59.25 67.43 68.88 69.57 70.06 70.56 70.23 71.25 72.56 72.60 72.60 72.21 72.33 71.80 70.97 69.94 69.43 68.95 68.53 67.85 66.78 64.94 63.70 63.37 63.46 64.47 65.36 66.08 66.44 65.04 63.51 62.91
47.36 45.19 40.14 38.69 39.25 40.90 41.09 43.35 45.16 44.70 44.01 46.31 46.97 46.51 51.16 55.06 57.45 61.58 67.57 69.22 69.08 69.68 70.19 70.89 70.75 71.40 72.41 72.54 72.21 72.11 71.83 71.07 70.04 69.35 68.87 68.37 67.72 67.12 65.50 63.31 62.52 62.63 63.32 63.74 64.10 64.00 62.20 60.78 60.77
46.05 43.24 38.38 36.87 38.11 41.03 42.58 42.87 45.07 43.90 44.12 45.49 46.77 48.24 50.93 53.41 59.40 61.82 67.82 68.46 69.59 69.34 69.73 70.25 68.02 69.40 70.89 71.75 71.49 71.45 71.17 71.06 70.42 69.37 68.79 68.22 67.57 66.99 65.71 64.00 62.26 61.88 62.12 62.01 62.21 61.90 60.50 59.25 58.99
44.51 41.13 38.29 37.03 37.66 40.24 42.30 42.44 42.66 43.02 43.90 45.30 48.73 46.82 49.79 52.62 58.20 61.22 64.80 67.05 68.54 69.35 69.35 69.80 69.83 68.76 67.34 68.70 69.36 70.12 70.41 70.34 70.09 69.68 69.26 68.39 67.80 67.46 66.17 65.53 63.90 62.13 61.36 60.99 60.87 60.17 59.22 58.09 57.61
42.02 40.63 37.36 36.18 37.55 39.75 42.40 42.16 43.12 44.28 44.01 46.42 48.27 45.48 47.37 53.53 55.96 57.66 59.88 61.81 64.51 67.25 68.26 68.66 68.97 69.65 70.10 70.28 65.98 67.05 68.27 68.80 68.93 68.24 66.95 65.64 65.53 65.50 64.80 63.75 63.85 62.45 61.70 60.82 59.94 58.96 58.23 57.53 57.03
42.62 38.31 35.75 37.80 37.49 40.62 41.07 42.17 42.41 44.21 44.17 44.61 45.61 46.36 48.40 53.56 53.84 55.88 56.55 56.86 58.39 59.98 63.33 67.18 68.01 68.46 69.10 69.24 67.24 65.25 65.65 66.33 66.19 65.76 63.84 63.32 66.11 65.29 64.40 63.01 63.49 62.59 60.98 59.33 58.61 58.22 57.27 55.99 55.33
39.55 36.62 37.97 39.66 39.41 40.45 41.58 42.26 42.23 43.23 43.16 43.78 44.38 45.68 48.68 52.37 53.39 56.86 57.71 58.68 58.25 57.84 58.34 62.09 64.35 66.68 67.77 68.19 67.38 68.67 68.52 68.53 68.09 67.76 66.95 66.79 65.97 65.41 63.80 60.96 61.02 61.15 60.35 59.38 58.40 56.39 53.77 51.77 51.25
38.88 36.32 37.91 40.55 41.92 42.58 41.98 41.05 42.61 42.07 41.16 43.89 44.66 45.07 47.62 51.37 52.52 56.46 57.86 59.18 58.58 56.92 55.24 56.00 57.69 57.78 64.00 66.07 67.76 67.37 67.19 68.54 68.70 67.57 67.05 66.11 65.03 64.00 63.60 61.08 59.47 57.66 55.36 55.28 54.99 54.12 52.70 51.60 51.29
37.86 39.36 39.47 42.86 42.83 41.77 41.03 41.90 41.54 41.42 44.13 44.74 44.71 45.80 47.88 50.90 52.20 55.00 56.64 56.08 54.09 52.81 54.01 54.20 55.24 56.01 57.07 59.11 63.01 67.43 67.61 67.39 67.08 66.99 66.80 65.20 64.02 63.48 61.83 60.71 58.96 56.88 56.63 55.72 55.26 53.72 52.18 50.66 49.97
38.54 39.78 40.50 42.15 41.68 41.11 42.41 41.20 41.78 41.19 43.35 44.09 43.50 44.52 46.96 50.92 52.67 51.10 53.77 53.48 51.66 51.60 51.82 52.92 53.48 55.12 55.33 56.02 58.67 64.31 67.09 67.35 66.84 66.14 66.32 66.35 64.47 63.37 61.55 61.42 59.78 57.08 55.64 55.92 54.80 53.03 51.35 49.60 47.85
40.38 40.75 40.35 41.22 41.73 41.57 41.01 40.57 41.42 42.84 42.43 43.05 42.83 43.52 44.99 47.88 50.65 47.90 47.62 49.88 48.18 49.24 50.23 51.29 52.01 53.84 54.70 55.50 58.64 62.89 64.61 64.58 65.47 65.67 65.68 65.04 64.60 62.33 61.24 60.56 58.10 56.90 56.18 56.04 54.10 52.40 49.61 47.19 45.12
40.15 37.91 39.65 39.23 40.81 41.04 41.46 39.41 40.07 42.53 41.92 42.60 42.46 42.22 42.59 44.55 45.64 48.44 49.57 47.48 46.96 47.17 48.52 49.55 51.01 53.70 54.48 54.74 58.77 61.44 62.48 62.73 62.73 62.83 64.30 63.83 63.19 61.69 59.96 58.67 56.35 55.83 55.52 52.86 51.79 50.12 47.10 44.10 41.96
37.23 36.77 34.67 38.18 40.02 40.21 40.88 35.68 41.19 40.81 41.32 42.57 42.02 41.23 40.97 42.56 44.51 45.21 45.86 45.83 45.43 46.17 47.34 48.75 51.61 53.81 54.33 55.88 58.70 59.47 59.18 60.24 60.80 59.87 61.25 61.73 61.32 60.96 59.10 57.58 55.35 55.19 52.90 51.27 50.45 47.60 44.35 41.44 39.80
34.49 31.47 32.41 36.57 39.67 38.79 38.49 36.56 40.18 39.91 39.30 40.20 40.42 40.78 40.62 41.15 42.04 42.79 44.20 44.74 45.00 45.66 47.16 48.06 51.29 53.13 54.45 56.09 55.83 56.97 56.12 56.81 57.10 57.34 57.73 58.74 58.88 58.70 57.56 55.73 53.42 52.02 50.48 49.22 47.73 45.56 42.48 38.11 36.53
31.79 31.47 31.79 33.13 36.86 36.53 35.88 36.67 39.35 40.04 39.33 40.41 40.38 40.04 40.25 41.10 42.93 44.72 43.22 43.10 43.91 44.98 46.58 48.04 50.29 52.43 53.64 52.78 50.69 51.60 50.22 50.50 52.50 53.65 53.95 54.76 55.38 55.23 55.10 53.27 50.73 49.32 46.61 46.12 45.43 42.95 40.95 38.24 36.35
33.79 31.75 31.70 34.25 37.59 36.89 36.28 36.16 39.03 40.40 38.70 38.47 39.81 40.52 40.92 41.11 44.99 43.26 42.89 42.90 42.37 44.05 45.35 46.94 49.00 50.98 51.04 50.67 50.17 50.08 48.36 47.34 47.49 48.68 49.84 51.46 51.80 52.04 52.13 51.04 46.36 46.98 45.73 45.27 43.95 42.41 38.01 35.64 36.00
33.72 31.96 32.66 34.85 36.06 36.54 35.82 35.95 39.68 39.09 41.35 42.57 43.20 42.67 42.24 43.22 41.60 41.17 41.44 41.20 41.93 43.49 45.01 46.44 48.67 49.81 50.45 52.09 50.09 48.29 45.61 43.54 43.93 43.89 44.63 46.74 47.83 49.06 48.37 46.21 43.35 42.54 42.95 43.15 43.60 40.76 37.57 36.42 36.97
32.37 32.00 31.73 34.05 34.56 34.35 33.07 32.21 34.33 38.39 39.84 41.71 41.18 43.12 42.85 43.37 44.16 42.55 39.65 40.50 41.73 42.44 44.20 46.14 48.29 49.29 50.17 50.44 43.84 41.75 41.91 42.61 40.78 41.06 41.49 41.45 44.79 44.62 44.74 42.47 40.32 41.98 44.83 43.44 43.18 40.66 38.65 35.93 34.49
31.09 35.37 34.66 33.45 32.63 28.52 32.64 26.30 32.97 36.02 38.34 38.18 40.72 41.04 42.23 43.38 42.89 42.34 39.86 39.84 40.39 42.47 44.71 46.46 48.12 48.59 49.10 44.84 46.72 45.63 46.79 44.23 42.31 42.20 40.29 38.87 40.48 40.91 41.23 38.33 39.59 41.06 43.66 42.39 41.48 40.11 38.79 37.70 35.35
33.95 35.20 34.07 32.83 30.75 29.63 28.95 28.72 32.41 33.33 35.51 38.27 41.89 41.87 42.46 42.03 42.17 41.83 40.04 41.22 41.37 42.63 43.87 46.09 47.64 48.10 47.27 44.98 47.24 46.76 45.72 43.38 41.14 39.49 38.33 36.76 36.81 37.59 37.21 36.78 36.98 37.91 39.75 40.53 38.89 36.01 35.48 37.36 34.96
36.59 34.46 33.01 30.59 29.66 25.05 29.64 30.28 33.41 32.30 36.42 38.41 40.53 41.88 41.88 40.53 40.43 39.99 39.78 39.47 39.43 41.63 43.86 45.54 46.37 48.03 44.36 44.14 45.71 46.54 45.08 38.66 38.53 37.39 36.93 35.56 34.74 33.86 33.78 33.36 34.58 34.96 35.81 36.24 35.85 34.82 34.63 33.87 33.16
34.77 33.16 25.86 23.13 22.40 25.28 27.15 28.13 35.83 35.53 37.34 39.04 41.07 42.90 39.68 40.05 40.31 39.18 37.76 37.26 38.46 40.79 42.96 44.85 45.74 46.33 43.92 44.80 44.53 45.84 41.90 40.66 40.27 38.40 37.71 33.92 32.89 31.85 31.41 32.17 32.55 32.44 32.58 32.53 32.66 32.84 32.34 32.58 32.76
33.06 33.32 26.60 18.37 18.85 23.04 27.33 25.59 32.04 37.20 38.98 38.77 39.38 39.55 38.16 39.09 39.73 39.49 38.10 37.18 38.32 40.47 42.48 44.23 44.91 44.97 43.29 44.00 43.83 43.98 41.41 40.94 40.98 39.84 38.10 36.54 35.61 34.13 31.80 31.73 31.77 31.24 31.13 30.94 31.53 31.65 30.98 31.28 31.17
32.81 30.72 34.67 28.60 14.73 20.86 26.67 29.51 34.47 35.62 36.83 37.54 38.81 37.51 37.36 38.63 38.98 38.40 37.30 36.72 38.12 40.03 41.99 43.94 44.89 45.81 42.61 43.37 43.27 40.74 40.17 40.63 39.90 38.26 36.88 35.54 34.97 32.69 30.88 30.83 30.67 30.38 30.47 30.65 30.71 30.34 29.39 30.13 29.61
34.17 36.05 29.16 26.86 18.77 15.22 24.83 26.51 31.23 34.46 37.42 38.76 37.94 38.85 38.59 38.42 38.50 37.29 36.25 36.25 37.91 39.67 41.61 43.95 45.39 45.65 41.86 41.97 40.47 39.32 38.83 38.87 38.53 36.93 34.81 32.81 31.71 31.10 29.37 29.20 29.99 29.61 29.53 29.30 29.73 28.90 28.68 28.67 28.23
31.97 30.88 29.91 30.13 26.88 20.04 17.78 28.22 33.02 36.45 37.43 37.06 38.21 39.10 38.97 38.26 38.56 37.75 35.99 36.06 37.43 38.78 40.48 43.15 43.99 41.49 39.77 39.64 39.20 37.73 36.44 36.24 35.89 35.14 33.30 31.69 30.62 29.76 29.45 28.98 29.09 28.80 28.49 28.51 28.80 28.43 27.86 27.93 27.41
31.11 31.28 31.56 26.32 22.50 23.95 23.69 31.21 35.06 36.57 38.02 36.84 37.67 38.45 37.96 37.82 37.99 36.39 35.36 35.42 36.06 37.38 38.50 41.00 41.50 39.13 38.97 38.71 37.93 36.80 34.66 34.30 33.50 33.60 31.60 30.97 30.14 29.44 28.80 28.46 28.85 28.52 28.34 28.19 28.14 27.12 27.31 27.02 26.41
MSLP
1015.71 1015.72 1015.77 1016.03 1018.05 1019.29 1019.86 1020.01 1019.83 1020.01 1020.19 1020.22 1020.33 1020.54 1020.65 1020.85 1020.81 1021.27 1020.74 1020.87 1020.82 1020.92 1021.20 1021.36 1021.52 1021.76 1022.07 1022.29 1022.54 1022.67 1022.76 1022.76 1022.97 1023.21 1023.28 1023.25 1023.25 1023.50 1023.48 1023.46 1023.54 1023.45 1023.54 1023.60 1023.61 1023.52 1023.67 1023.72 1023.81
1015.76 1015.76 1016.10 1017.35 1018.70 1019.89 1020.20 1020.06 1019.94 1019.90 1020.11 1020.33 1020.50 1020.67 1020.79 1020.97 1020.76 1020.78 1020.78 1020.86 1020.82 1021.01 1021.23 1021.46 1021.64 1021.89 1022.17 1022.53 1022.68 1022.73 1022.94 1023.09 1023.35 1023.40 1023.55 1023.52 1023.74 1023.85 1023.82 1023.77 1023.93 1023.97 1023.98 1023.99 1024.02 1023.97 1024.14 1024.23 1024.44
1015.77 1015.90 1017.12 1018.39 1019.69 1020.01 1019.93 1019.81 1019.85 1020.21 1020.33 1020.43 1020.69 1020.83 1020.89 1020.93 1020.79 1020.65 1020.57 1020.61 1020.93 1021.17 1021.40 1021.68 1021.86 1022.05 1022.33 1022.57 1022.81 1022.88 1023.19 1023.35 1023.53 1023.71 1023.85 1023.88 1024.07 1024.18 1024.19 1024.32 1024.29 1024.41 1024.34 1024.39 1024.35 1024.49 1024.66 1024.80 1024.88
1016.21 1016.71 1018.69 1018.98 1019.65 1019.56 1019.58 1019.56 1019.88 1020.46 1020.43 1020.44 1020.52 1020.97 1021.10 1020.90 1020.74 1020.71 1020.62 1020.60 1020.87 1021.24 1021.49 1021.79 1021.92 1022.11 1022.38 1022.61 1022.83 1023.03 1023.24 1023.48 1023.66 1023.77 1024.00 1024.07 1024.33 1024.49 1024.72 1024.70 1024.67 1024.80 1024.94 1024.84 1025.05 1025.08 1025.18 1025.46 1025.50
1016.86 1017.84 1019.00 1019.57 1019.69 1019.47 1019.46 1019.49 1019.85 1020.31 1020.36 1020.53 1020.53 1020.86 1021.06 1020.98 1020.92 1020.81 1020.71 1020.70 1020.88 1021.32 1021.57 1021.78 1021.96 1022.21 1022.46 1022.65 1022.93 1023.15 1023.35 1023.61 1023.84 1023.90 1024.27 1024.48 1024.72 1024.92 1025.07 1024.98 1025.11 1025.35 1025.30 1025.39 1025.61 1025.63 1025.86 1026.09 1026.22
1017.61 1018.61 1019.62 1019.98 1019.69 1019.37 1019.28 1019.40 1019.69 1020.10 1020.28 1020.56 1020.71 1020.99 1021.03 1020.93 1021.00 1020.97 1020.89 1020.93 1020.98 1021.23 1021.64 1021.87 1022.09 1022.26 1022.43 1022.73 1023.02 1023.21 1023.52 1023.75 1023.98 1024.23 1024.51 1024.88 1024.98 1024.98 1025.19 1025.34 1025.43 1025.73 1025.71 1025.94 1026.07 1026.19 1026.48 1026.59 1026.89
1017.94 1019.21 1019.94 1019.97 1019.76 1019.48 1019.16 1019.37 1019.66 1019.84 1020.18 1020.29 1020.38 1020.96 1021.00 1021.02 1021.08 1021.17 1021.18 1021.13 1021.20 1021.43 1021.61 1021.84 1022.06 1022.29 1022.54 1022.79 1023.06 1023.29 1023.61 1023.83 1024.08 1024.44 1024.73 1024.98 1025.02 1025.22 1025.52 1025.76 1025.86 1025.92 1026.11 1026.26 1026.40 1026.77 1026.87 1027.13 1027.31
1018.31 1019.50 1020.25 1020.11 1020.01 1019.29 1019.04 1019.31 1019.19 1019.59 1019.93 1020.23 1020.31 1020.58 1020.79 1020.66 1021.08 1021.32 1021.50 1021.56 1021.64 1021.64 1021.75 1021.92 1022.15 1022.32 1022.53 1022.82 1023.11 1023.36 1023.65 1023.98 1024.29 1024.57 1024.86 1025.06 1025.30 1025.67 1025.93 1026.00 1026.12 1026.28 1026.51 1026.80 1027.03 1027.09 1027.26 1027.55 1027.78
1018.39 1019.64 1020.21 1019.80 1019.94 1018.95 1019.11 1019.29 1019.42 1019.57 1019.92 1020.26 1020.27 1020.38 1020.58 1020.80 1021.17 1021.49 1021.81 1021.97 1022.01 1022.06 1022.00 1021.99 1022.24 1022.44 1022.60 1022.86 1023.17 1023.52 1023.76 1024.03 1024.37 1024.73 1025.03 1025.34 1025.61 1025.89 1026.10 1026.31 1026.47 1026.79 1027.14 1027.41 1027.60 1027.78 1028.00 1028.23 1028.44
1018.56 1019.70 1019.34 1018.86 1018.83 1018.61 1018.82 1019.01 1019.25 1019.70 1019.90 1020.11 1020.18 1020.36 1020.73 1021.08 1021.22 1021.28 1021.49 1021.73 1021.99 1022.14 1022.27 1022.16 1022.31 1022.43 1022.57 1022.77 1023.10 1023.25 1023.59 1023.92 1024.18 1024.60 1025.12 1025.43 1025.74 1026.03 1026.37 1026.76 1026.87 1027.28 1027.60 1027.88 1028.16 1028.49 1028.78 1028.90 1029.19
1018.66 1018.86 1018.68 1018.44 1018.42 1018.42 1018.65 1018.93 1019.03 1019.32 1019.78 1019.24 1019.42 1019.93 1020.70 1021.05 1021.21 1021.22 1021.24 1021.33 1021.57 1021.95 1022.32 1022.44 1022.47 1022.73 1022.59 1022.65 1022.85 1023.15 1023.43 1023.69 1023.98 1024.31 1024.78 1025.34 1025.74 1026.13 1026.51 1027.06 1027.29 1027.55 1027.97 1028.36 1028.70 1028.97 1029.25 1029.53 1029.73
1018.50 1018.48 1018.38 1018.24 1018.27 1018.47 1018.58 1018.67 1018.88 1019.10 1018.39 1018.49 1018.84 1019.34 1020.26 1020.78 1020.90 1020.82 1020.95 1021.24 1021.56 1021.89 1022.16 1022.41 1022.50 1022.70 1022.85 1022.89 1022.92 1022.91 1023.19 1023.44 1023.77 1024.22 1024.45 1025.06 1025.70 1026.12 1026.49 1026.99 1027.45 1027.77 1028.07 1028.54 1029.01 1029.41 1029.80 1030.05 1030.37
1018.35 1018.36 1018.29 1018.25 1018.24 1018.32 1018.46 1018.62 1018.69 1018.58 1018.24 1018.66 1018.99 1019.46 1019.84 1020.24 1020.52 1020.83 1021.04 1021.29 1021.56 1021.80 1022.03 1022.30 1022.45 1022.45 1022.85 1023.02 1023.01 1022.97 1022.86 1023.06 1023.45 1023.93 1024.24 1024.65 1025.23 1025.93 1026.47 1026.89 1027.40 1027.93 1028.19 1028.42 1029.15 1029.70 1030.14 1030.47 1030.82
1018.48 1018.49 1018.43 1018.36 1018.34 1018.34 1018.47 1018.60 1018.68 1017.96 1018.16 1018.74 1019.14 1019.33 1019.70 1019.98 1020.05 1020.73 1021.06 1021.06 1021.30 1021.56 1021.87 1022.13 1022.33 1022.47 1022.68 1022.78 1022.83 1022.83 1022.90 1023.00 1023.04 1023.51 1023.89 1024.29 1024.76 1025.48 1026.24 1026.92 1027.51 1027.93 1028.37 1028.49 1029.29 1029.87 1030.42 1030.93 1031.37
1018.79 1018.93 1018.67 1018.52 1018.54 1018.52 1018.57 1018.80 1018.14 1017.98 1018.29 1018.68 1019.02 1019.28 1019.60 1019.71 1020.06 1019.88 1020.07 1020.58 1020.92 1021.32 1021.67 1021.93 1022.13 1022.28 1022.49 1022.58 1022.58 1022.75 1022.83 1023.02 1023.05 1023.20 1023.64 1023.95 1024.51 1024.99 1025.77 1026.68 1027.54 1027.87 1028.41 1028.72 1029.47 1030.35 1030.89 1031.43 1031.96
1019.59 1019.60 1019.51 1018.85 1018.82 1018.81 1019.05 1018.71 1017.74 1018.08 1018.55 1018.54 1018.77 1019.10 1019.26 1019.24 1019.22 1019.66 1019.83 1020.17 1020.66 1021.10 1021.34 1021.57 1021.75 1021.90 1022.07 1022.24 1022.32 1022.49 1022.81 1022.99 1023.10 1023.28 1023.45 1023.82 1024.28 1024.84 1025.58 1026.23 1027.21 1027.83 1028.52 1028.80 1029.56 1030.57 1031.35 1032.09 1032.40
1020.70 1020.31 1020.19 1019.40 1019.13 1019.24 1019.38 1018.93 1017.96 1018.19 1018.62 1018.66 1018.68 1018.63 1018.82 1018.79 1018.83 1018.90 1019.07 1019.48 1019.91 1020.39 1020.84 1021.24 1021.39 1021.56 1021.80 1021.95 1022.29 1022.50 1022.82 1022.95 1023.15 1023.26 1023.49 1023.77 1024.19 1024.73 1025.41 1026.24 1027.08 1027.86 1028.38 1028.78 1029.53 1030.80 1031.32 1032.30 1033.06
1020.67 1020.76 1020.53 1020.16 1019.64 1019.70 1019.77 1018.98 1018.56 1018.20 1018.49 1018.37 1018.13 1018.08 1018.10 1017.97 1017.17 1017.45 1018.15 1018.67 1019.25 1019.77 1020.29 1020.78 1021.14 1021.31 1021.49 1021.89 1022.56 1022.78 1023.08 1023.23 1023.31 1023.39 1023.57 1023.81 1024.13 1024.65 1025.30 1026.23 1026.89 1027.91 1028.22 1028.95 1029.80 1030.57 1031.78 1032.14 1032.87
1020.44 1020.63 1020.59 1020.11 1019.75 1019.98 1019.55 1018.99 1018.30 1017.96 1017.99 1017.52 1017.24 1017.03 1016.72 1016.59 1015.60 1016.56 1017.14 1017.88 1018.70 1019.33 1019.81 1020.22 1020.72 1021.00 1021.37 1021.84 1022.42 1022.77 1023.04 1023.41 1023.63 1023.69 1023.71 1023.95 1024.10 1024.54 1025.15 1025.94 1026.81 1027.72 1027.71 1028.62 1029.60 1030.54 1031.43 1032.75 1033.05
1020.68 1020.91 1020.86 1020.19 1020.03 1020.35 1019.61 1019.03 1017.82 1017.53 1016.59 1015.62 1015.43 1015.40 1015.20 1015.16 1015.03 1015.66 1016.27 1017.15 1017.66 1018.21 1018.85 1019.43 1019.83 1020.38 1020.74 1021.07 1021.67 1022.17 1022.85 1023.42 1023.57 1023.97 1023.92 1024.24 1024.23 1024.50 1025.03 1025.95 1026.57 1027.45 1027.86 1028.72 1029.33 1029.88 1031.23 1032.27 1032.55
1020.96 1021.06 1020.87 1020.87 1020.46 1020.48 1020.26 1019.15 1017.54 1015.86 1015.25 1014.70 1014.27 1013.68 1013.91 1013.67 1013.85 1014.49 1015.41 1015.99 1016.98 1017.50 1017.84 1018.37 1018.93 1019.57 1020.23 1020.68 1021.33 1022.33 1023.10 1023.58 1023.93 1024.23 1024.29 1024.23 1024.41 1024.65 1025.05 1025.70 1026.36 1026.88 1027.15 1028.05 1028.70 1029.32 1029.81 1030.98 1032.36
1020.77 1020.25 1020.55 1021.09 1021.60 1021.47 1020.77 1019.32 1017.32 1015.68 1014.44 1014.08 1013.04 1012.83 1012.42 1012.52 1013.06 1013.44 1014.33 1015.31 1015.79 1016.00 1016.93 1017.64 1018.37 1018.95 1019.56 1020.15 1020.74 1021.32 1021.91 1022.48 1022.92 1023.58 1024.00 1024.38 1024.66 1024.82 1025.06 1025.71 1025.99 1026.38 1026.93 1027.72 1028.38 1029.06 1029.52 1030.01 1031.02
1020.06 1020.29 1020.96 1021.42 1021.97 1022.13 1021.19 1020.51 1015.85 1015.23 1014.27 1013.34 1011.91 1011.46 1011.46 1011.79 1012.32 1012.88 1013.55 1013.86 1014.47 1015.64 1016.14 1016.90 1017.69 1018.33 1018.89 1019.59 1020.07 1020.72 1021.53 1021.99 1022.66 1023.56 1024.23 1024.67 1025.07 1025.37 1025.37 1025.53 1025.97 1026.53 1027.03 1027.67 1028.28 1029.17 1029.45 1029.89 1030.45
1019.99 1020.63 1021.56 1022.36 1022.75 1022.38 1020.15 1020.02 1013.50 1014.58 1013.01 1012.15 1011.13 1010.66 1010.62 1011.57 1012.04 1012.55 1013.09 1013.60 1014.18 1014.96 1015.75 1016.37 1016.94 1017.47 1018.24 1018.89 1019.44 1019.94 1020.86 1021.80 1022.55 1023.41 1024.13 1024.70 1025.23 1025.70 1025.68 1025.70 1026.19 1026.58 1027.00 1027.55 1028.24 1028.94 1029.44 1029.73 1029.99
1019.58 1020.60 1022.04 1023.00 1023.24 1021.33 1019.92 1019.53 1012.87 1013.11 1011.99 1011.47 1011.04 1010.02 1010.57 1011.30 1011.93 1012.43 1012.96 1013.72 1014.20 1014.87 1015.37 1015.95 1016.47 1016.85 1017.38 1018.10 1018.82 1019.37 1020.23 1021.08 1021.62 1022.39 1023.30 1024.32 1024.96 1025.51 1025.74 1025.84 1026.40 1026.82 1027.24 1027.84 1028.45 1029.04 1029.56 1029.75 1029.94
1019.12 1019.22 1020.23 1021.28 1022.45 1021.53 1020.49 1017.77 1013.05 1011.66 1011.18 1011.01 1010.57 1010.55 1011.06 1011.60 1011.92 1012.32 1012.74 1013.32 1014.05 1014.78 1015.23 1015.60 1016.03 1016.50 1016.94 1017.54 1018.26 1018.95 1019.60 1020.35 1021.10 1021.71 1022.39 1023.14 1023.55 1023.99 1024.84 1025.37 1026.05 1026.74 1027.38 1028.02 1028.56 1029.10 1029.68 1029.86 1030.10
1018.49 1018.79 1018.25 1019.96 1022.06 1021.79 1018.47 1015.17 1012.33 1011.19 1010.75 1010.58 1010.15 1010.42 1011.11 1011.42 1011.86 1012.17 1012.51 1012.97 1013.54 1014.07 1014.49 1014.88 1015.48 1016.10 1016.70 1017.25 1018.01 1018.64 1019.24 1019.79 1020.42 1021.33 1022.07 1022.77 1023.34 1023.90 1024.68 1025.16 1025.90 1026.80 1027.38 1027.96 1028.59 1029.21 1029.62 1029.98 1030.58
1016.75 1017.37 1018.73 1019.79 1021.02 1020.67 1017.13 1015.14 1012.25 1011.05 1010.33 1009.71 1010.07 1010.04 1010.38 1010.83 1011.55 1011.89 1012.60 1012.95 1013.47 1013.95 1014.31 1014.78 1015.22 1015.58 1016.25 1016.99 1017.77 1018.39 1019.06 1019.69 1020.31 1021.06 1021.70 1022.49 1023.23 1024.05 1024.80 1025.36 1026.05 1026.86 1027.57 1028.18 1028.68 1029.40 1029.92 1030.15 1031.00
1017.36 1017.26 1018.05 1018.57 1019.06 1018.61 1017.13 1012.71 1010.33 1009.82 1009.60 1009.69 1009.58 1009.81 1010.02 1010.42 1010.77 1011.44 1012.29 1012.87 1013.37 1013.93 1014.27 1014.51 1014.83 1015.19 1015.90 1016.67 1017.44 1018.10 1018.85 1019.56 1020.22 1020.83 1021.50 1022.14 1022.91 1023.73 1024.48 1025.01 1025.89 1026.57 1027.34 1028.06 1028.64 1029.33 1029.89 1030.31 1031.04
1016.35 1015.95 1016.31 1017.29 1018.09 1017.92 1016.46 1010.52 1009.27 1009.29 1009.32 1009.36 1009.59 1009.80 1010.15 1010.42 1011.05 1011.82 1012.38 1012.86 1013.34 1013.49 1013.86 1014.10 1014.50 1014.89 1015.27 1015.91 1016.81 1017.55 1018.34 1019.18 1020.00 1020.69 1021.42 1022.05 1022.75 1023.63 1024.36 1024.96 1025.70 1026.47 1027.24 1028.00 1028.50 1029.17 1029.85 1030.37 1031.00
Wind_Speed
4 4 1 5 4 5 0 3 1 3 2 1 3 5 5 2 3 2 1 6 9 10 8 10 11 12 13 13 13 14 14 16 15 16 16 16 17 16 16 16 15 16 16 16 17 19 19 20 20
2 1 5 3 6 3 4 2 5 4 2 6 4 3 2 2 1 4 6 6 10 10 8 9 10 12 12 12 13 15 14 15 15 16 16 17 16 15 16 16 16 16 16 17 16 19 19 20 19
2 4 4 5 3 4 5 4 4 2 5 2 3 2 4 5 1 5 1 10 10 9 8 9 11 13 12 12 13 15 15 15 16 16 16 16 16 15 16 16 17 16 17 17 18 18 19 18 19
2 5 5 5 3 3 2 4 5 6 3 1 2 4 1 1 3 1 4 12 12 10 9 10 11 12 12 11 12 14 15 14 16 16 15 16 15 16 15 16 17 17 17 18 17 18 19 19 20
4 3 4 3 2 3 3 2 7 5 2 2 2 3 2 1 1 1 8 10 13 10 9 9 10 12 13 12 13 12 14 14 15 16 15 15 15 15 16 17 17 17 18 18 18 19 20 21 21
5 4 4 2 3 3 2 5 7 4 3 2 2 5 4 1 3 1 8 9 9 12 9 9 9 10 11 12 12 12 13 14 14 15 15 14 15 16 16 17 18 17 18 18 19 20 21 22 21
7 5 4 3 2 2 5 7 6 6 4 5 4 6 2 2 3 4 6 5 6 7 9 8 9 9 9 9 10 11 12 12 14 13 13 11 12 13 14 14 17 18 18 19 20 20 21 21 21
6 6 3 3 5 5 5 6 2 5 5 2 3 4 4 4 7 7 5 5 5 5 6 7 7 7 8 7 7 8 10 11 11 12 11 11 11 12 12 12 16 18 18 19 19 20 21 21 21
3 6 2 5 7 4 4 5 1 2 5 2 4 3 0 5 9 7 5 4 4 4 5 5 7 6 8 8 8 8 9 11 11 10 10 9 7 10 11 12 16 18 18 18 18 20 21 21 20
5 4 9 5 5 3 5 4 8 5 3 4 3 3 2 5 6 11 9 9 7 7 6 6 6 6 5 4 6 9 8 6 7 9 9 6 6 7 10 10 17 17 17 19 19 19 18 14 9
2 5 4 4 4 3 4 2 5 7 4 8 10 5 6 6 7 9 9 8 11 7 5 6 6 2 4 3 3 3 3 5 5 11 10 6 5 6 6 5 5 7 11 7 10 10 8 12 9
2 1 4 2 1 4 5 5 4 6 7 1 8 4 8 11 13 13 12 9 8 7 8 6 5 4 2 2 2 4 5 5 5 7 12 8 5 5 6 4 5 5 6 9 8 7 10 13 13
2 4 2 0 1 2 4 4 8 8 9 1 3 6 11 11 11 5 5 5 6 7 6 7 4 5 3 3 2 2 5 6 7 7 9 8 7 7 6 6 7 5 6 9 9 9 9 11 12
2 2 0 1 2 2 3 2 1 4 4 4 5 8 8 12 14 4 7 9 9 6 7 6 5 4 4 4 5 4 4 2 5 6 8 11 8 8 7 7 6 6 5 8 8 7 8 8 9
2 0 4 1 1 2 1 6 11 4 2 6 8 7 8 11 7 15 12 11 10 6 6 8 7 6 5 6 6 4 3 3 3 4 7 10 8 10 10 8 5 6 6 10 10 9 9 9 8
4 5 1 2 3 2 3 8 8 1 5 11 9 8 8 11 14 9 8 8 9 6 9 7 6 7 7 6 5 4 3 4 4 3 5 8 9 11 9 9 8 7 6 8 9 8 9 8 9
6 3 3 7 5 1 4 6 5 1 4 9 9 9 8 9 10 12 12 11 10 11 9 9 9 9 8 7 4 5 4 3 3 4 4 6 9 10 9 8 8 7 7 8 9 8 9 9 10
6 3 3 5 2 1 3 14 11 8 4 10 9 9 10 13 19 14 13 11 10 10 9 7 8 9 8 6 4 3 3 2 2 3 4 7 7 10 10 8 8 8 8 8 8 12 8 10 10
6 3 3 5 3 3 8 11 12 11 6 11 13 14 14 16 17 9 11 12 10 9 10 11 11 9 8 5 5 4 3 2 2 2 5 6 8 10 10 8 9 8 9 11 12 12 15 9 11
4 3 5 6 3 4 8 15 16 8 13 15 17 17 17 14 9 8 11 12 15 14 13 13 13 12 11 7 4 3 3 2 2 2 3 3 6 9 9 9 9 8 9 12 14 14 9 6 6
4 6 6 7 4 3 6 8 9 8 12 14 13 18 12 19 18 12 12 15 11 14 17 15 15 14 12 9 7 5 5 3 3 3 3 3 5 6 9 9 9 10 10 11 14 13 10 9 4
5 9 5 4 3 5 1 9 9 8 13 7 14 13 19 19 14 10 10 12 16 18 13 14 14 15 12 12 10 10 6 6 3 4 3 4 4 6 9 9 9 11 8 12 12 10 7 7 7
7 6 6 3 3 4 2 4 9 0 9 11 18 16 15 13 12 11 12 15 15 12 14 13 14 14 12 13 12 10 7 3 5 6 8 5 3 2 6 8 9 9 7 9 11 10 8 5 6
10 7 6 5 3 5 10 8 8 7 9 7 8 11 10 6 8 8 6 6 7 9 12 14 16 15 14 15 14 15 12 9 9 8 7 5 4 2 3 7 7 7 8 10 8 6 8 6 5
2 7 1 3 1 11 2 5 17 6 9 9 12 15 4 5 5 5 7 7 6 11 12 13 16 17 15 16 15 14 13 13 14 14 10 10 6 4 7 8 8 7 7 7 7 7 6 7 7
10 9 8 9 5 5 3 11 10 10 9 10 12 10 3 4 5 7 7 6 7 9 11 13 17 15 15 15 14 12 13 9 9 12 10 9 9 9 11 9 9 9 9 8 7 6 6 7 7
7 9 3 2 3 2 7 11 10 9 13 10 14 5 6 9 8 8 6 7 9 11 13 14 16 15 15 14 12 12 11 12 11 12 10 8 7 7 10 10 11 10 10 10 9 7 8 7 7
7 6 4 2 4 5 7 7 10 6 9 10 9 11 9 8 8 6 6 6 5 6 8 11 14 16 14 13 11 10 11 10 10 10 12 10 8 9 10 11 10 10 9 9 9 7 8 9 6
4 5 2 5 6 7 3 11 9 11 10 10 8 7 7 7 8 7 6 5 6 5 7 11 13 12 12 13 12 11 10 10 10 10 10 11 10 11 12 12 12 12 11 10 9 9 9 10 9
3 6 8 7 6 4 3 19 4 6 6 4 7 5 2 3 3 4 5 6 6 9 9 11 11 13 14 13 12 12 11 11 10 10 10 11 12 11 12 12 12 11 11 10 11 11 9 10 10
Wind_Direction
343 344 48 46 59 62 153 237 316 166 182 151 111 149 180 87 156 185 276 174 154 149 156 147 135 132 132 129 125 117 112 104 99 98 94 86 84 84 81 80 79 83 84 86 83 84 83 82 78
350 209 46 77 86 75 260 243 205 213 133 131 105 102 111 127 202 131 129 182 155 146 145 141 133 133 129 133 133 123 116 111 107 98 93 88 86 84 84 81 80 81 85 84 86 85 84 80 77
133 35 78 86 103 175 205 203 174 107 149 202 110 43 143 156 171 164 193 163 150 145 146 148 140 137 138 135 134 123 119 116 110 106 100 96 92 87 84 85 83 83 86 87 85 86 83 79 76
35 20 47 82 204 226 209 176 156 141 254 181 134 110 287 256 154 98 149 154 149 151 151 151 146 141 142 137 135 131 125 119 115 109 103 96 92 86 85 83 81 82 86 85 86 86 82 77 76
35 55 62 72 275 264 253 175 149 160 143 166 201 177 165 207 296 303 159 153 150 156 155 156 150 145 148 144 142 137 132 126 122 115 112 105 101 99 95 90 90 88 87 87 85 83 80 77 75
51 93 66 214 254 264 241 167 147 169 149 165 121 145 205 331 170 136 161 161 161 160 162 161 155 152 147 149 149 144 141 134 129 123 118 114 108 99 96 94 91 91 88 86 85 84 81 78 76
111 87 182 170 238 269 211 153 168 169 159 237 152 139 239 225 143 132 136 140 152 164 164 168 164 157 145 146 147 147 144 140 134 132 127 118 104 96 94 91 91 90 91 89 88 88 86 83 79
102 90 115 212 199 247 188 179 147 160 215 80 180 192 200 188 143 124 110 116 127 140 152 164 166 162 155 155 149 150 148 148 143 136 131 125 113 100 91 86 89 88 87 90 92 92 91 87 82
119 68 187 217 161 229 150 172 35 130 120 241 203 172 89 123 131 125 129 116 130 139 154 155 166 171 165 168 166 158 154 152 145 138 137 130 126 112 99 90 93 93 91 89 90 90 90 87 81
86 122 215 199 194 209 186 188 167 158 147 242 268 224 108 151 169 163 173 171 172 173 168 158 160 180 180 161 169 168 169 165 158 155 156 147 131 122 108 97 95 91 93 93 90 87 84 82 81
147 181 196 214 215 195 176 220 176 138 226 217 208 188 173 180 190 186 190 180 182 173 164 177 159 163 181 167 172 167 171 170 171 164 158 150 132 134 125 116 102 109 98 97 93 89 83 87 86
114 237 183 157 167 138 171 131 209 194 218 177 225 167 164 186 198 198 194 185 170 175 175 175 164 160 194 159 207 199 189 181 167 176 162 150 145 144 131 123 114 108 112 107 98 94 95 90 86
138 199 199 353 160 194 143 204 223 232 235 143 124 175 190 195 204 211 197 184 176 190 182 186 175 165 185 214 211 232 215 189 179 174 169 159 152 147 134 135 125 122 125 119 111 105 102 94 90
164 163 178 325 246 227 207 230 133 259 139 179 193 216 208 208 204 175 198 203 197 192 193 183 193 192 187 212 218 215 230 200 163 168 174 165 159 147 142 141 134 127 132 123 113 111 106 97 93
93 229 329 226 306 283 176 295 238 228 161 221 228 235 230 226 202 214 207 206 190 200 187 192 193 190 200 207 213 192 208 190 179 147 157 158 157 152 147 137 137 134 123 116 108 100 100 97 93
63 50 47 265 163 297 143 262 274 353 203 247 250 245 238 235 228 224 211 207 195 185 191 185 191 192 194 193 201 179 177 180 181 150 153 154 149 150 146 142 136 141 128 121 114 115 105 97 98
6 212 210 313 199 150 171 260 265 55 198 266 257 252 243 255 247 230 217 206 198 196 187 193 191 189 184 175 170 174 160 161 161 148 145 151 146 151 141 140 134 140 131 123 123 116 119 116 106
205 197 247 250 210 185 238 261 270 269 228 259 263 252 245 245 243 226 213 203 199 194 189 187 187 184 170 148 141 145 117 124 130 145 141 142 141 140 140 134 141 153 136 122 122 121 119 121 119
133 160 217 246 242 197 232 259 261 264 258 258 253 251 245 239 248 210 207 199 193 193 187 186 183 183 165 160 171 167 161 152 123 131 130 146 143 140 142 141 139 161 145 142 136 129 131 122 133
156 155 254 285 224 187 274 265 269 240 249 237 246 247 241 244 241 214 204 195 199 193 193 189 188 181 183 175 160 143 143 134 114 135 104 167 138 142 137 151 149 164 133 140 148 148 143 137 185
196 177 216 225 340 249 332 280 262 277 246 252 247 245 246 234 242 227 199 204 194 195 193 193 188 181 183 167 127 98 93 103 119 175 154 148 155 141 149 154 158 154 150 157 162 163 161 156 189
227 207 165 162 68 257 93 286 282 250 252 237 254 239 243 241 239 233 197 199 200 209 193 188 183 180 180 164 165 168 182 167 164 163 150 134 142 151 154 157 155 153 157 163 170 166 163 149 157
223 124 157 128 159 351 197 278 245 118 270 253 251 248 244 237 232 234 207 208 212 194 187 184 179 179 174 177 181 177 185 155 138 138 144 130 114 157 161 151 148 152 158 162 165 169 165 161 150
149 78 55 57 90 280 179 172 243 192 219 254 258 252 241 241 238 239 239 200 183 173 178 179 180 184 172 179 183 184 177 152 146 151 156 153 146 150 152 134 152 153 153 160 164 162 162 158 144
146 113 299 326 29 237 7 195 259 277 230 228 253 267 287 207 227 233 211 207 173 180 182 181 185 189 178 181 184 184 171 168 175 168 168 161 160 176 182 160 160 159 152 145 144 150 152 158 150
201 165 170 203 196 254 11 238 252 239 267 252 262 263 266 184 230 245 228 203 181 183 184 186 194 191 184 179 183 180 171 175 178 178 171 178 179 174 167 160 155 148 141 140 136 136 141 135 128
195 213 203 92 95 32 224 277 286 259 276 263 258 270 238 240 247 247 227 201 189 186 190 188 193 195 185 184 181 178 174 175 175 174 169 171 170 165 162 155 148 146 145 144 139 139 132 121 118
165 169 88 352 190 246 267 264 234 277 252 260 257 253 240 220 233 229 238 216 198 188 184 189 199 198 184 180 179 176 177 175 169 168 173 168 148 155 156 150 150 146 144 142 137 133 134 129 125
145 203 150 142 158 185 274 261 213 220 237 263 273 280 285 247 218 218 221 215 189 170 177 189 197 179 175 175 176 171 172 170 168 175 168 166 154 157 164 158 155 155 153 150 141 143 142 136 138
298 230 165 148 218 238 184 266 171 219 256 225 270 277 268 244 234 241 218 193 186 193 184 190 187 182 180 174 169 172 162 165 170 175 168 162 164 162 163 159 159 157 155 155 153 149 153 151 155